Date,TemperatureHighF,TemperatureAvgF,TemperatureLowF,DewpointHighF,DewpointAvgF,DewpointLowF,HumidityHigh,HumidityAvg,HumidityLow,PressureMaxIn,PressureMinIn,WindSpeedMaxMPH,WindSpeedAvgMPH,GustSpeedMaxMPH,PrecipitationSumIn
2013-1-8,50.0,49.7,49.3,45.8,45.5,44.8,86,86,84,29.83,29.79,6,3,6,0.00
2013-1-9,50.4,40.9,34.3,44.8,38.0,32.5,96,90,79,29.87,29.60,12,2,12,0.20
2013-1-10,88.5,37.3,33.6,85.0,35.4,-16.8,98,94,10,29.98,29.86,49,1,49,0.06
2013-1-11,43.7,31.4,21.2,35.4,28.8,-18.6,98,91,10,30.17,29.98,24,0,24,0.02
2013-1-12,36.9,27.7,21.6,31.7,25.9,20.4,97,93,78,30.27,30.16,3,0,3,0.05
2013-1-13,28.8,27.3,25.9,27.4,26.2,24.2,97,95,93,30.36,30.26,0,0,0,0.00
2013-1-14,34.7,29.8,25.2,31.6,27.9,24.0,97,93,84,30.42,30.35,3,0,3,0.00
2013-1-15,38.3,35.6,32.4,35.9,33.8,31.1,97,93,91,30.52,30.40,12,0,12,0.00
2013-1-16,34.2,33.0,32.2,33.0,32.2,31.5,99,97,95,30.51,30.35,3,0,3,0.00
2013-1-17,54.7,32.1,27.1,38.4,30.6,-20.6,99,96,10,30.35,29.91,49,0,49,0.34
2013-1-18,33.3,29.8,26.2,32.5,29.3,25.8,99,98,97,30.19,30.14,2,0,2,0.00
2013-1-19,32.7,29.2,25.9,31.8,28.8,25.4,99,98,97,30.21,30.14,12,0,12,0.00
2013-1-20,36.0,29.4,27.3,34.8,29.0,26.8,99,98,94,30.22,30.11,2,0,2,0.00
2013-1-21,33.1,29.3,26.8,31.9,28.8,26.6,99,98,95,30.14,30.01,3,0,3,0.05
2013-1-22,47.3,31.6,26.6,37.7,29.9,26.4,99,94,68,30.03,29.81,4,0,4,0.00
2013-1-23,35.8,34.0,32.0,35.1,32.9,31.0,99,96,86,30.06,29.77,5,0,5,0.22
2013-1-24,81.5,36.1,29.7,80.6,35.9,29.4,99,99,97,30.08,29.98,3,0,3,0.00
2013-1-25,54.7,42.0,34.7,51.8,41.2,34.5,99,97,86,30.00,29.83,6,1,6,0.52
2013-1-26,48.0,40.7,37.4,43.5,39.3,36.1,99,95,80,29.95,29.81,8,2,8,0.31
2013-1-27,132.1,39.0,25.0,40.8,37.5,-23.8,99,96,10,30.02,29.91,8,1,8,0.20
2013-1-28,88.9,40.6,21.9,62.2,39.2,13.5,99,95,33,30.10,29.95,8,0,8,0.07
2013-1-29,47.3,44.4,42.8,45.4,42.8,40.6,98,94,91,30.35,30.10,8,1,8,0.02
2013-1-30,49.8,45.2,42.1,47.8,43.9,40.7,98,95,90,30.35,30.30,11,3,11,0.05
2013-1-31,95.0,48.6,26.6,91.9,44.5,-5.4,99,87,10,30.31,30.18,6,0,6,0.00
2013-2-1,64.2,46.0,39.7,48.3,42.3,-6.6,98,88,10,30.21,30.10,97,0,97,0.01
2013-2-2,54.5,40.5,31.3,44.6,37.5,-14.7,98,90,10,30.17,30.10,4,0,4,0.00
2013-2-3,47.3,43.5,32.2,44.6,41.8,14.3,98,94,88,30.19,30.08,4,0,4,0.00
2013-2-4,54.5,45.0,38.5,45.6,41.6,-12.7,99,89,71,30.09,29.81,12,0,12,0.43
2013-2-5,52.9,45.6,36.9,46.9,42.2,-14.6,96,88,10,29.92,29.78,100,4,100,0.15
2013-2-6,89.4,44.9,21.6,88.2,41.2,20.4,96,87,77,30.00,29.70,13,2,13,0.05
2013-2-7,49.1,40.2,33.3,41.0,37.1,32.5,97,89,68,30.21,30.00,8,2,8,0.09
2013-2-8,54.1,38.6,33.1,42.6,25.6,10.2,99,68,23,30.34,30.21,5,0,5,0.01
2013-2-9,45.3,40.5,34.5,17.4,14.3,9.7,37,34,30,30.37,30.32,4,0,4,0.07
2013-2-10,44.6,42.4,41.2,18.8,17.1,6.8,37,36,32,30.41,30.35,3,0,3,0.34
2013-2-11,46.4,43.3,39.4,41.8,28.4,13.6,91,62,27,30.46,30.38,3,0,3,0.00
2013-2-12,55.9,48.3,43.9,49.5,44.7,41.6,95,88,75,30.55,30.46,8,2,8,0.00
2013-2-13,53.6,48.0,45.1,47.6,43.5,40.6,93,84,68,30.58,30.50,48,1,48,0.00
2013-2-14,67.6,50.1,37.2,47.2,41.9,35.9,96,76,45,30.62,30.54,5,0,5,0.00
2013-2-15,70.0,48.2,40.5,47.5,42.6,38.9,97,83,42,30.54,30.28,8,0,8,0.00
2013-2-16,54.3,44.1,37.2,49.9,41.2,35.1,97,90,69,30.35,30.28,7,0,7,0.05
2013-2-17,48.7,40.7,35.4,41.0,35.3,32.1,95,82,59,30.36,30.15,4,0,4,0.00
2013-2-18,49.3,39.8,33.6,40.0,35.4,31.8,96,85,62,30.16,29.80,10,1,10,0.06
2013-2-19,62.4,43.5,35.2,43.6,37.7,33.8,97,82,41,30.06,29.73,6,0,6,0.01
2013-2-20,48.9,38.9,34.2,40.3,36.5,32.8,96,91,70,30.17,30.06,5,1,5,0.15
2013-2-21,44.1,40.6,36.1,40.7,38.7,35.3,97,93,84,30.28,30.17,11,3,11,0.06
2013-2-22,46.8,42.3,37.4,44.5,40.3,34.5,97,92,84,30.26,30.00,16,5,16,0.53
2013-2-23,53.2,39.5,34.3,45.2,36.3,31.7,96,89,63,30.51,30.16,8,1,8,0.35
2013-2-24,57.0,43.3,35.1,39.3,34.9,32.0,93,74,43,30.51,30.14,11,2,11,0.01
2013-2-25,55.4,43.4,36.1,41.7,37.9,34.0,95,82,48,30.42,29.92,15,2,15,0.18
2013-2-26,55.6,42.8,35.2,38.7,34.7,29.7,95,75,40,29.96,29.81,0,0,0,0.00
2013-2-27,51.3,46.5,41.7,44.7,40.6,36.8,92,80,68,29.87,29.78,9,0,9,0.01
2013-2-28,55.2,51.5,46.4,53.5,49.4,44.4,95,92,87,30.01,29.77,11,2,11,0.08
2013-3-1,52.3,51.5,51.4,50.8,49.9,49.8,95,94,93,30.02,30.00,9,0,9,0.00
2013-3-2,51.4,49.4,42.3,49.8,46.7,37.8,94,90,82,30.01,29.93,0,0,0,0.00
2013-3-3,59.5,44.4,25.5,39.6,32.6,-23.4,96,67,10,30.04,29.94,2,0,2,0.09
2013-3-4,64.8,44.2,30.4,38.1,33.8,29.3,96,71,33,29.95,29.65,0,0,0,0.01
2013-3-5,44.2,41.0,40.5,43.3,36.6,35.4,97,84,82,29.92,29.43,0,0,0,0.31
2013-3-6,47.1,42.3,40.3,45.5,40.9,38.4,98,95,88,30.18,29.76,10,2,10,0.34
2013-3-7,63.3,46.6,35.6,44.7,37.5,33.4,96,73,38,30.25,30.18,6,1,6,0.08
2013-3-8,66.4,46.4,33.1,42.1,36.8,31.8,97,73,36,30.42,30.23,5,0,5,0.00
2013-3-9,71.4,48.1,32.9,44.0,36.6,30.4,96,68,30,30.70,30.42,4,0,4,0.11
2013-3-10,55.0,46.6,36.1,43.2,38.3,29.7,87,73,61,30.70,30.62,9,0,9,0.00
2013-3-11,51.4,51.4,51.4,42.0,42.0,42.0,70,70,70,30.62,30.62,0,0,0,0.00
2013-3-12,58.3,54.1,0.0,50.8,45.6,42.0,78,72,70,30.62,29.91,4,0,5,0.96
2013-3-13,57.2,57.2,57.2,49.0,49.0,49.0,74,74,74,30.21,30.21,0,0,4,0.00
2013-3-14,59.2,53.3,48.2,48.5,45.9,41.8,90,77,55,30.22,30.06,5,1,5,0.00
2013-3-15,69.4,56.2,46.4,51.8,47.6,44.0,93,75,43,30.24,30.18,4,0,4,0.00
2013-3-16,51.3,46.1,38.8,46.3,43.2,37.5,96,90,81,30.19,30.04,8,2,8,0.28
2013-3-17,53.1,43.0,36.1,39.9,36.2,33.8,94,78,50,30.32,30.19,6,2,6,0.01
2013-3-18,59.0,43.7,31.3,40.1,34.2,29.9,96,72,40,30.29,30.14,3,0,3,0.00
2013-3-19,49.5,43.4,37.2,48.4,39.9,33.9,98,88,74,30.13,29.68,4,0,4,0.50
2013-3-20,53.8,45.0,39.0,50.7,39.5,33.6,98,81,69,30.19,29.57,8,1,8,0.44
2013-3-21,54.0,41.5,35.8,41.6,35.4,32.7,94,80,50,30.33,30.19,5,0,5,0.02
2013-3-22,57.6,41.1,31.8,37.4,33.3,30.6,96,76,40,30.39,30.31,0,0,0,0.02
2013-3-23,55.2,41.6,32.2,39.3,31.3,20.1,93,70,33,30.39,30.26,0,0,0,0.00
2013-3-24,62.4,45.3,34.9,38.7,34.4,29.4,88,68,38,30.26,30.08,4,0,4,0.01
2013-3-25,62.8,49.0,37.8,41.5,36.4,32.6,84,64,39,30.08,29.92,0,0,0,0.00
2013-3-26,54.5,48.0,43.2,47.2,43.6,37.7,93,85,73,30.03,29.97,0,0,0,0.02
2013-3-27,70.3,52.4,40.1,50.7,45.4,39.1,98,80,40,30.01,29.91,8,0,8,0.01
2013-3-28,74.1,55.6,45.5,52.9,48.0,44.1,97,78,38,30.15,30.00,4,0,4,0.01
2013-3-29,73.4,57.5,47.3,53.8,49.0,45.9,96,76,46,30.21,30.13,29,0,29,0.54
2013-3-30,93.2,61.2,43.7,60.7,47.2,34.7,96,65,29,30.18,29.96,4,0,4,0.09
2013-3-31,80.1,62.2,51.8,52.9,49.2,45.7,84,65,37,30.02,29.93,6,1,6,0.00
2013-4-1,68.5,57.1,50.9,53.0,49.7,47.4,91,77,56,30.19,30.02,8,1,8,0.00
2013-4-2,72.5,60.6,47.1,52.1,47.9,44.4,93,65,40,30.22,30.13,7,0,7,0.00
2013-4-3,101.3,53.5,42.6,96.1,47.7,40.8,96,82,53,30.17,29.91,12,1,12,0.00
2013-4-4,66.9,56.4,52.9,56.7,51.2,46.9,95,83,69,29.92,29.71,14,9,14,0.04
2013-4-5,58.5,53.0,49.1,53.2,49.4,-11.8,97,88,29,29.98,29.84,12,1,12,0.22
2013-4-6,71.4,50.8,12.9,70.0,47.7,-12.5,97,90,10,30.02,29.71,6,0,6,0.53
2013-4-7,50.7,47.2,36.3,49.1,42.7,-10.9,97,86,10,29.99,29.62,21,2,21,0.35
2013-4-8,61.3,45.8,37.6,46.7,38.9,-13.7,98,81,10,30.21,29.99,15,0,15,0.35
2013-4-9,58.3,52.7,33.3,45.7,42.0,-5.1,94,68,51,30.36,30.22,61,1,61,0.26
2013-4-10,51.6,50.8,50.0,46.2,44.5,8.3,84,80,18,30.25,30.22,0,0,0,0.00
2013-4-11,62.1,52.1,38.1,44.4,40.7,36.5,95,66,46,30.36,30.17,0,0,0,0.00
2013-4-12,55.2,46.1,36.1,46.5,40.1,34.3,94,80,61,30.17,29.89,10,0,10,0.06
2013-4-13,88.2,47.1,39.0,42.5,38.1,-13.4,94,73,10,30.10,29.96,24,0,24,0.11
2013-4-14,52.2,52.2,52.2,38.3,38.3,38.3,59,59,59,30.09,30.09,0,0,0,0.11
2013-4-15,55.0,50.7,41.9,43.3,38.7,-8.4,85,65,10,30.17,30.00,24,0,24,0.15
2013-4-16,66.4,49.0,36.0,43.9,39.3,29.1,94,72,37,30.39,30.17,0,0,0,0.05
2013-4-17,127.2,48.5,35.1,87.3,39.3,-15.4,96,73,10,30.50,30.39,0,0,0,0.02
2013-4-18,65.3,53.4,18.5,47.3,43.2,-8.1,89,70,48,30.48,30.33,6,0,6,0.02
2013-4-19,61.9,52.0,45.5,54.8,48.5,1.9,97,88,67,30.34,30.19,10,2,10,0.20
2013-4-20,58.5,49.8,44.8,48.2,45.1,40.9,96,84,64,30.36,30.27,24,0,24,0.24
2013-4-21,57.6,50.3,44.4,49.0,43.9,40.5,88,79,67,30.32,30.25,1,0,1,0.00
2013-4-22,74.5,54.0,39.7,45.7,36.3,25.8,94,59,20,30.40,30.31,8,0,8,0.00
2013-4-23,78.6,56.7,38.7,38.4,32.7,22.7,82,47,14,30.37,30.14,3,0,3,0.02
2013-4-24,84.4,65.8,41.2,40.6,29.2,17.0,76,30,10,30.23,30.01,2,0,2,0.19
2013-4-25,84.7,62.9,44.6,44.8,39.1,31.8,76,46,18,30.15,30.03,0,0,0,0.00
2013-4-26,88.3,64.0,46.2,55.6,42.4,21.8,86,51,11,30.25,30.15,6,0,6,0.20
2013-4-27,79.3,60.2,45.3,45.3,39.8,13.7,79,51,10,30.28,30.21,53,0,53,0.00
2013-4-28,100.2,57.9,51.1,52.3,46.1,27.7,86,67,39,30.29,30.13,97,1,97,0.20
2013-4-29,68.7,52.6,19.2,52.7,38.5,-28.3,93,63,10,30.25,30.11,24,1,24,0.08
2013-4-30,61.0,47.2,35.1,40.6,35.2,32.3,91,66,40,30.43,30.25,12,0,12,0.00
2013-5-1,77.0,53.6,-3.6,43.9,34.8,-19.5,92,55,20,30.50,30.42,5,0,5,0.00
2013-5-2,87.6,63.8,36.7,43.7,34.2,13.7,63,38,10,30.44,29.71,49,0,49,0.09
2013-5-3,88.7,65.0,46.6,45.7,38.7,5.7,69,41,10,30.30,29.74,7,0,7,0.00
2013-5-4,90.0,66.4,50.0,52.6,37.0,10.1,75,40,10,30.13,29.88,49,0,49,0.19
2013-5-5,94.1,68.8,-9.0,56.0,35.4,-26.9,75,34,10,29.90,29.68,97,3,97,0.02
2013-5-6,87.6,66.1,52.7,54.1,48.3,-36.2,78,56,26,29.92,29.78,49,2,49,0.09
2013-5-7,83.1,61.0,46.8,67.6,49.1,18.5,95,68,31,30.05,29.92,30,1,30,0.19
2013-5-8,77.9,57.4,44.6,54.9,49.2,-1.5,94,76,42,30.16,30.04,6,0,6,0.00
2013-5-9,87.6,65.1,47.5,57.8,50.9,35.6,95,65,26,30.20,30.08,6,0,6,0.00
2013-5-10,88.9,68.1,52.2,58.0,52.2,48.4,89,60,28,30.20,30.11,4,0,4,0.00
2013-5-11,91.9,69.2,53.8,60.8,54.3,48.9,86,63,27,30.21,30.02,4,0,4,0.00
2013-5-12,73.0,63.9,57.9,60.0,55.7,52.8,91,75,61,30.14,30.08,4,0,4,0.04
2013-5-13,71.1,59.1,49.3,56.5,52.0,45.0,95,79,50,30.23,30.06,11,2,11,0.00
2013-5-14,76.6,56.5,43.3,47.2,42.3,31.5,96,65,22,30.24,30.10,6,0,6,0.00
2013-5-15,60.3,52.8,47.1,53.2,46.3,37.5,89,79,65,30.12,30.02,4,0,4,0.12
2013-5-16,100.0,56.8,51.4,94.5,52.7,4.1,97,86,67,30.02,29.96,4,0,4,0.18
2013-5-17,69.1,57.5,48.9,52.5,48.8,43.9,92,74,48,30.06,30.00,5,0,5,0.01
2013-5-18,62.4,62.4,62.4,50.5,50.5,50.5,65,65,65,30.06,30.06,0,0,0,0.01
2013-5-19,73.4,62.1,49.5,52.9,49.7,45.1,86,64,45,30.40,30.06,6,0,6,0.06
2013-5-20,81.0,58.4,43.2,53.4,45.7,36.5,97,68,23,30.35,29.94,7,0,7,0.00
2013-5-21,54.9,47.2,40.8,50.2,44.9,39.8,97,92,76,30.02,29.86,6,0,6,0.54
2013-5-22,51.1,45.1,40.8,49.4,43.8,39.8,97,95,89,30.01,29.95,8,3,8,0.25
2013-5-23,57.0,48.8,44.2,50.3,46.6,43.7,98,92,73,30.03,29.99,8,2,8,0.27
2013-5-24,61.5,52.4,46.9,53.9,48.5,46.1,99,87,68,30.09,29.99,8,1,8,0.05
2013-5-25,72.5,62.0,46.6,51.8,48.8,44.3,94,64,41,30.08,29.94,0,0,0,0.17
2013-5-26,68.0,56.4,51.8,55.0,50.9,47.0,98,83,59,30.06,29.96,7,0,7,0.14
2013-5-27,68.0,55.4,50.4,61.2,51.9,47.0,98,88,70,30.00,29.76,9,1,9,0.46
2013-5-28,68.4,56.4,51.3,54.6,50.0,46.3,98,81,50,29.96,29.77,5,0,5,0.21
2013-5-29,69.6,55.8,49.3,53.2,49.9,45.0,98,82,51,30.08,29.65,1,0,1,0.22
2013-5-30,66.2,56.6,48.4,50.0,47.6,44.4,92,73,51,30.20,30.08,0,0,0,0.00
2013-5-31,61.5,61.5,61.5,49.2,49.2,49.2,64,64,64,30.19,30.19,0,0,0,0.00
2013-6-1,61.5,61.5,61.5,49.2,49.2,49.2,64,64,64,30.19,30.19,0,0,0,0.00
2013-6-2,72.0,61.3,0.0,54.9,49.9,48.0,84,65,52,30.19,29.91,0,0,0,0.01
2013-6-3,83.1,62.2,47.1,57.0,50.8,45.2,95,71,32,29.98,29.89,7,0,7,0.00
2013-6-4,90.1,67.2,48.4,57.4,50.4,45.3,91,59,26,29.95,29.84,4,0,4,0.00
2013-6-5,80.1,60.3,55.9,59.4,53.4,51.7,86,79,49,29.99,29.87,0,0,0,0.00
2013-6-6,92.8,70.0,57.4,62.3,55.2,48.0,88,63,25,30.05,29.97,5,0,5,0.00
2013-6-7,88.7,67.6,54.5,59.6,48.0,29.5,84,54,14,30.13,30.03,3,0,3,0.00
2013-6-8,88.5,66.8,50.5,53.1,47.3,16.9,91,57,10,30.15,30.03,55,2,55,0.00
2013-6-9,81.9,64.2,23.5,68.2,48.2,14.6,84,59,26,30.08,29.96,24,0,24,0.00
2013-6-10,78.6,58.5,44.8,52.2,46.0,41.7,91,66,30,30.01,29.88,8,0,8,0.00
2013-6-11,69.1,57.5,51.1,50.3,46.3,43.5,84,67,46,30.14,29.99,5,0,5,0.00
2013-6-12,65.5,57.4,50.0,50.7,47.5,-27.0,87,70,53,30.18,30.12,4,0,4,0.00
2013-6-13,95.9,54.5,49.3,59.2,50.3,-4.9,97,87,26,30.29,30.16,6,0,6,0.35
2013-6-14,78.1,59.2,45.5,55.6,50.2,44.7,99,75,39,30.29,29.97,7,0,7,0.07
2013-6-15,86.4,64.1,40.8,65.1,50.0,-11.5,96,66,10,30.02,29.90,49,2,49,0.08
2013-6-16,80.6,63.2,41.2,59.6,52.6,-11.2,96,71,10,30.11,30.01,12,0,12,0.19
2013-6-17,80.8,62.3,48.4,57.4,50.5,10.4,96,69,32,30.11,29.95,6,1,6,0.02
2013-6-18,70.9,58.9,50.4,59.8,50.4,-2.0,91,74,53,30.01,29.93,7,1,7,0.12
2013-6-19,75.2,57.8,48.2,55.2,49.2,-0.6,94,75,41,30.09,29.95,7,1,7,0.00
2013-6-20,66.7,56.6,50.7,56.7,50.3,47.7,91,80,67,30.12,30.05,5,1,5,0.17
2013-6-21,72.5,57.9,55.0,54.8,49.8,49.0,80,75,49,30.16,30.12,4,0,4,0.00
2013-6-22,87.6,67.1,50.2,57.3,49.4,33.9,95,60,17,30.09,29.85,0,0,0,0.00
2013-6-23,74.3,68.2,58.5,65.7,61.4,47.1,91,79,52,29.84,29.65,2,0,2,0.27
2013-6-24,65.3,58.7,54.1,59.2,55.1,53.0,97,88,68,29.71,29.66,4,0,4,0.07
2013-6-25,70.5,62.3,56.1,64.0,57.6,53.9,97,85,69,29.85,29.67,5,0,5,0.32
2013-6-26,74.7,64.2,57.9,62.4,58.7,52.8,99,83,63,30.03,29.84,4,0,4,0.32
2013-6-27,87.1,70.4,59.9,63.6,60.8,57.9,94,74,44,30.14,30.00,4,0,4,0.00
2013-6-28,99.3,73.3,59.5,69.1,61.5,55.1,97,71,27,30.13,30.02,0,0,0,0.00
2013-6-29,99.1,76.3,61.5,64.0,58.6,53.2,83,58,24,30.09,29.95,2,0,2,0.00
2013-6-30,109.4,78.4,-2.7,99.9,60.5,-7.2,92,60,10,29.97,29.83,4,0,4,0.00
2013-7-1,100.2,76.7,54.5,73.6,62.9,31.9,87,65,33,30.00,29.89,8,0,8,0.18
2013-7-2,109.0,76.1,63.3,75.2,62.3,23.0,89,65,10,30.06,29.99,3,0,3,0.01
2013-7-3,96.8,72.2,59.2,56.6,50.8,30.3,81,53,12,30.12,30.01,6,0,6,0.00
2013-7-4,88.0,66.7,52.5,55.7,51.7,48.1,86,62,29,30.14,30.00,4,0,4,0.00
2013-7-5,86.2,64.8,53.2,57.6,52.2,48.1,85,66,33,30.06,29.83,5,0,5,0.01
2013-7-6,88.0,66.5,51.3,58.9,54.1,48.3,92,67,33,29.86,29.74,8,0,8,0.00
2013-7-7,114.8,68.7,55.2,96.5,55.5,10.8,90,66,30,29.87,29.76,97,0,97,0.05
2013-7-8,119.5,69.1,52.9,60.8,54.5,19.3,92,64,29,29.98,29.86,24,0,24,0.00
2013-7-9,91.4,78.5,55.9,64.7,59.6,14.3,93,57,19,29.97,29.92,24,1,24,0.00
2013-7-10,96.8,85.1,58.3,61.5,56.9,17.0,69,40,10,29.94,29.81,24,1,24,0.02
2013-7-11,102.7,65.4,50.7,54.1,48.0,40.5,85,58,23,29.97,29.83,4,0,4,0.00
2013-7-12,89.4,64.7,49.5,52.9,45.3,-3.4,87,55,10,29.99,29.88,24,0,24,0.01
2013-7-13,92.1,67.3,48.7,52.1,45.3,28.5,86,52,12,30.04,29.90,8,0,8,0.00
2013-7-14,99.3,72.8,54.1,55.2,48.5,31.9,85,49,11,30.02,29.90,5,0,5,0.00
2013-7-15,95.4,69.1,53.4,62.3,48.0,41.7,75,50,20,30.01,29.80,4,0,4,0.01
2013-7-16,91.4,69.4,59.2,59.1,52.7,45.6,82,57,29,30.02,29.77,4,0,4,0.00
2013-7-17,92.5,68.3,59.0,59.6,54.6,51.6,85,65,27,30.17,30.01,4,0,4,0.00
2013-7-18,95.9,69.9,53.8,64.0,54.3,40.8,95,64,17,30.20,30.06,5,0,5,0.02
2013-7-19,95.2,70.7,54.1,62.1,55.8,5.9,90,63,10,30.14,29.99,5,0,5,0.00
2013-7-20,104.0,69.1,53.2,99.9,56.0,-0.2,92,67,10,30.08,29.93,24,0,24,0.00
2013-7-21,87.1,63.6,52.3,67.8,54.6,48.8,93,75,37,29.99,29.93,5,0,5,0.08
2013-7-22,95.2,71.5,56.5,59.3,55.3,48.3,92,61,21,30.04,29.93,3,0,3,0.00
2013-7-23,102.2,76.3,57.2,64.0,57.3,-40.8,95,59,18,30.03,29.93,24,0,24,0.00
2013-7-24,103.6,78.0,59.9,60.9,53.4,32.7,85,50,10,30.03,29.95,5,0,5,0.00
2013-7-25,103.5,78.0,60.4,56.5,50.5,31.3,83,46,10,30.08,29.99,5,0,5,0.00
2013-7-26,103.3,75.6,57.9,56.5,47.4,32.4,71,42,10,30.15,30.04,4,0,4,0.00
2013-7-27,95.5,69.2,54.7,54.4,47.7,40.1,74,51,16,30.18,30.00,4,0,4,0.00
2013-7-28,88.5,60.1,50.7,55.7,50.1,47.6,91,73,28,30.06,30.03,4,0,4,0.00
2013-7-29,92.1,64.5,50.4,56.5,52.2,47.8,92,68,24,30.03,29.94,2,0,2,0.00
2013-7-30,95.7,68.9,50.2,60.8,53.9,48.4,96,65,23,30.14,30.03,4,0,4,0.00
2013-7-31,89.6,66.3,55.4,63.6,56.7,53.1,94,74,37,30.11,30.02,3,0,3,0.00
2013-8-1,69.1,61.4,56.7,57.3,55.2,53.8,94,80,64,30.12,30.06,5,0,5,0.00
2013-8-2,86.7,65.9,57.7,58.8,54.8,51.2,89,70,32,30.15,30.08,5,0,5,0.00
2013-8-3,94.5,70.8,54.7,62.7,56.4,47.3,96,66,22,30.11,29.96,3,0,3,0.00
2013-8-4,101.8,78.4,-34.2,73.9,56.4,-55.2,94,52,21,30.02,29.89,53,3,53,3.81
2013-8-5,95.9,82.6,-2.4,63.2,57.3,-45.3,90,46,10,30.01,29.95,49,2,49,0.00
2013-8-6,95.9,92.5,71.1,59.5,57.4,45.0,56,31,29,29.99,29.89,49,3,49,0.01
2013-8-7,87.6,68.6,58.6,60.5,52.7,-14.9,82,59,10,30.04,29.94,3,0,3,0.01
2013-8-8,95.4,70.3,54.9,62.8,56.1,13.7,92,66,10,30.06,29.90,61,0,61,0.02
2013-8-9,76.6,69.0,63.9,64.1,58.0,56.3,78,68,56,29.95,29.89,49,0,49,0.00
2013-8-10,109.2,73.3,57.7,65.3,59.2,-38.6,91,66,10,30.05,29.97,24,0,24,0.04
2013-8-11,88.7,65.5,56.3,64.0,57.4,24.2,94,77,39,30.08,29.99,2,0,2,0.00
2013-8-12,122.7,65.9,-2.7,99.9,55.5,-45.6,94,73,10,30.08,30.01,3,0,3,0.19
2013-8-13,97.0,70.0,50.9,63.5,51.8,44.9,90,59,19,30.10,29.92,4,0,4,0.05
2013-8-14,72.7,67.0,58.3,58.9,56.2,46.4,81,69,62,29.97,29.94,3,0,3,0.00
2013-8-15,72.7,72.7,72.7,58.9,58.9,58.9,62,62,62,29.94,29.94,0,0,0,0.00
2013-8-16,72.7,72.7,72.7,58.9,58.9,58.9,62,62,62,29.94,29.94,0,0,0,0.00
2013-8-17,72.7,72.7,72.7,58.9,58.9,58.9,62,62,62,29.94,29.94,0,0,0,0.00
2013-8-18,72.7,72.7,72.7,58.9,58.9,58.9,62,62,62,29.94,29.94,0,0,0,0.00
2013-8-19,72.7,71.2,62.2,58.9,58.0,54.0,75,63,59,30.10,29.52,1,0,1,0.08
2013-8-20,95.2,70.5,52.5,54.9,49.3,40.1,86,54,16,30.13,29.97,4,0,4,0.00
2013-8-21,96.8,73.0,55.0,57.3,53.0,49.7,85,55,22,30.00,29.84,4,0,4,0.01
2013-8-22,93.9,72.7,61.2,60.4,55.4,52.8,83,57,29,29.92,29.84,3,0,3,0.00
2013-8-23,81.3,69.9,55.4,60.6,57.4,53.1,94,68,48,29.95,29.90,3,1,3,0.00
2013-8-24,84.6,67.5,59.0,61.6,56.7,52.7,92,71,42,29.92,29.85,101,0,101,0.00
2013-8-25,77.0,60.0,3.6,62.7,53.5,0.2,94,81,10,30.67,29.90,97,1,97,0.12
2013-8-26,87.6,61.6,35.1,68.6,55.0,27.3,97,82,28,29.97,29.91,5,0,5,0.22
2013-8-27,92.3,68.0,58.5,68.7,59.8,2.7,98,79,10,29.96,29.80,97,0,97,0.07
2013-8-28,89.6,70.7,59.0,68.3,60.5,58.4,98,72,41,29.92,29.84,3,0,3,0.77
2013-8-29,84.2,68.1,62.6,69.0,62.8,-14.2,99,84,55,30.08,29.85,100,1,100,0.20
2013-8-30,93.6,71.1,61.3,68.8,60.0,-1.5,97,71,30,30.15,30.03,4,0,4,0.19
2013-8-31,99.9,73.5,54.9,63.9,56.8,52.5,97,63,22,30.04,29.82,6,0,6,0.00
2013-9-1,63.7,60.0,56.3,56.4,54.2,52.8,88,81,76,29.90,29.88,2,0,2,0.00
2013-9-2,92.8,64.7,58.8,61.3,57.7,30.6,99,82,28,29.94,29.88,11,5,11,0.81
2013-9-3,88.9,67.5,-5.3,69.2,55.8,-5.3,99,72,10,30.01,29.93,61,2,61,0.04
2013-9-4,77.2,66.7,59.9,59.0,56.4,54.4,87,71,50,30.04,29.99,2,0,2,0.00
2013-9-5,67.1,60.5,57.7,61.9,57.9,8.8,99,93,10,30.06,29.99,7,0,7,2.63
2013-9-6,72.5,65.0,58.8,63.1,59.5,58.5,99,84,66,30.14,30.05,5,1,5,0.65
2013-9-7,89.2,67.1,33.8,73.8,57.0,-10.9,99,76,10,30.10,29.95,24,1,24,0.45
2013-9-8,64.2,33.8,24.4,24.6,22.2,21.4,88,72,22,30.01,30.00,0,0,0,0.45
2013-9-9,93.7,71.5,58.6,65.3,60.9,14.7,98,73,10,30.03,29.91,3,0,3,0.00
2013-9-10,95.5,72.4,-24.0,75.9,63.3,-37.7,99,76,37,29.92,29.76,25,0,25,0.00
2013-9-11,105.8,76.3,61.7,66.4,59.7,53.1,84,61,19,29.95,29.80,4,0,4,0.00
2013-9-12,96.6,70.1,57.0,66.2,59.6,19.3,97,73,33,30.00,29.91,2,0,3,0.00
2013-9-13,89.4,67.5,55.2,65.1,60.0,54.4,98,80,42,29.97,29.83,4,0,4,0.00
2013-9-14,89.6,66.6,59.2,67.7,61.9,58.2,99,87,43,29.85,29.71,4,0,4,0.00
2013-9-15,73.8,62.5,58.8,62.8,59.1,51.1,97,89,77,29.91,29.73,4,1,4,0.00
2013-9-16,79.3,64.2,57.6,61.3,57.6,12.9,94,81,49,29.99,29.90,4,1,4,0.00
2013-9-17,81.9,62.1,54.9,57.3,52.0,49.2,95,71,38,30.03,29.87,5,1,5,0.00
2013-9-18,85.1,61.4,51.6,54.1,50.5,-0.6,97,71,26,30.08,30.00,5,0,5,0.00
2013-9-19,93.6,63.1,46.0,55.7,48.9,41.6,97,67,19,30.00,29.78,4,0,4,0.38
2013-9-20,74.8,60.0,52.3,62.3,54.5,49.5,98,83,56,29.78,29.67,5,0,5,0.00
2013-9-21,68.9,58.8,54.7,60.3,56.0,53.1,99,91,67,29.80,29.68,5,1,5,0.00
2013-9-22,61.9,56.2,54.1,59.3,54.8,52.3,99,95,75,29.88,29.70,9,3,9,0.00
2013-9-23,104.4,55.6,-2.2,60.5,53.4,-45.1,99,94,10,30.00,29.88,14,2,14,0.00
2013-9-24,61.9,53.8,-2.2,57.3,48.6,-45.1,99,86,10,29.99,29.92,24,1,24,0.00
2013-9-25,59.5,59.5,59.5,54.1,54.1,54.1,82,82,82,29.93,29.93,2,2,5,0.00
2013-9-26,59.5,59.5,59.5,54.1,54.1,54.1,82,82,82,29.93,29.93,2,2,5,0.00
2013-9-27,59.5,59.5,59.5,54.1,54.1,54.1,82,82,82,29.93,29.93,2,2,5,0.00
2013-9-28,63.5,58.0,52.2,59.4,57.0,51.9,99,97,85,29.92,29.56,17,6,17,0.00
2013-9-29,61.2,53.3,41.5,55.3,51.8,-2.3,99,97,10,29.71,29.44,11,4,11,0.00
2013-9-30,60.6,52.8,49.1,56.1,50.8,32.8,99,93,78,30.01,29.64,7,2,7,0.00
2013-10-1,71.6,53.5,48.2,56.4,50.2,-4.7,99,90,51,30.15,29.99,14,1,14,0.00
2013-10-2,57.9,47.2,41.5,52.4,45.9,41.3,99,95,76,30.19,30.07,4,1,4,0.00
2013-10-3,70.3,46.5,37.8,52.1,43.4,37.5,99,90,46,30.41,30.18,2,0,2,0.00
2013-10-4,70.5,49.3,40.5,52.4,45.2,39.9,99,88,42,30.44,30.32,4,0,4,0.00
2013-10-5,46.4,45.1,43.9,45.0,44.2,43.1,97,96,95,30.32,30.30,0,0,0,0.00
2013-10-6,79.3,64.4,41.5,55.3,49.6,41.0,99,63,36,30.13,29.98,4,1,4,0.00
2013-10-7,66.2,55.1,47.5,55.8,50.0,45.6,97,84,54,30.16,29.99,5,1,5,0.00
2013-10-8,69.4,50.9,43.3,53.9,48.6,40.0,97,92,77,30.17,29.99,4,1,4,0.00
2013-10-9,67.8,50.4,40.8,52.6,45.0,40.3,99,83,51,30.09,29.97,3,0,3,0.00
2013-10-10,50.5,50.5,50.5,44.6,44.6,44.6,80,80,80,29.97,29.97,0,0,0,0.00
2013-10-11,50.5,50.5,50.5,44.6,44.6,44.6,80,80,80,29.97,29.97,0,0,0,0.00
2013-10-12,58.5,50.4,44.4,51.3,46.8,43.2,97,88,71,30.16,30.06,1,0,1,0.00
2013-10-13,71.1,53.4,41.9,52.9,47.3,41.6,99,81,49,30.29,30.16,2,0,2,0.00
2013-10-14,72.5,52.2,39.7,52.0,45.4,39.5,99,80,41,30.35,30.26,4,0,4,0.19
2013-10-15,73.8,54.0,40.8,47.9,43.0,39.8,97,71,31,30.30,30.12,4,0,4,0.00
2013-10-16,74.3,53.2,41.2,51.4,44.5,39.5,95,75,39,30.15,30.09,24,0,24,0.51
2013-10-17,69.8,50.3,40.8,53.7,46.2,40.0,99,87,54,30.22,30.13,3,0,3,0.00
2013-10-18,76.6,54.5,41.9,51.7,44.3,-9.8,97,73,10,30.16,30.06,3,0,3,0.14
2013-10-19,53.2,50.1,48.0,47.6,44.0,43.4,92,80,78,30.15,30.08,1,0,1,0.09
2013-10-20,73.0,52.3,0.0,53.3,47.2,41.0,98,84,46,30.14,30.04,4,0,4,0.76
2013-10-21,77.7,54.3,42.1,55.0,48.1,41.8,99,82,44,30.08,29.96,4,0,4,0.00
2013-10-22,82.0,58.9,47.3,55.8,49.2,45.9,96,74,35,30.04,29.95,3,0,3,0.00
2013-10-23,83.1,56.4,44.2,57.2,49.9,43.7,99,82,37,30.00,29.93,12,0,12,0.00
2013-10-24,79.2,53.0,42.4,57.7,49.0,-0.6,99,88,42,30.08,29.98,4,0,4,0.00
2013-10-25,52.2,49.1,45.1,51.7,48.7,44.3,99,98,97,30.24,30.08,2,0,2,0.01
2013-10-26,51.8,50.3,49.1,50.8,49.4,48.2,99,97,93,30.27,30.16,0,0,0,0.01
2013-10-27,62.4,30.5,0.0,55.7,46.9,43.4,98,54,66,30.17,29.83,4,0,4,0.13
2013-10-28,0.0,0.0,0.0,45.2,45.2,45.2,0,0,100,29.85,29.85,0,0,0,0.13
2013-10-29,0.0,0.0,0.0,45.2,45.2,45.2,0,0,100,29.85,29.85,0,0,0,0.13
2013-10-30,65.7,13.9,0.0,45.2,44.2,33.7,93,17,38,30.17,29.85,3,0,3,0.13
2013-10-31,53.4,52.6,45.1,48.3,43.2,42.7,99,71,67,30.26,30.16,2,2,2,0.00
2013-11-1,66.6,52.6,44.8,55.5,49.7,44.2,99,91,60,30.27,29.91,6,0,6,0.00
2013-11-2,55.4,50.9,49.3,51.4,50.0,47.4,99,97,77,29.97,29.77,9,3,9,0.46
2013-11-3,50.9,45.9,40.5,46.3,42.8,-8.8,98,91,10,30.17,30.07,6,1,6,0.21
2013-11-4,50.5,46.6,43.5,48.2,45.4,42.9,99,96,87,30.17,27.10,8,2,8,0.11
2013-11-5,54.1,50.8,42.4,53.3,50.2,-2.6,99,98,51,30.23,30.08,11,2,11,0.06
2013-11-6,53.6,52.4,50.9,53.3,51.7,-2.6,99,98,35,30.27,30.08,49,1,49,0.35
2013-11-7,77.5,51.6,43.2,54.6,48.1,-3.7,99,90,10,30.14,29.91,30,4,30,0.57
2013-11-8,91.8,47.8,43.9,49.4,46.3,43.6,99,95,85,30.20,30.12,7,1,27,0.02
2013-11-9,47.8,44.7,43.0,46.7,44.1,42.7,99,98,90,30.10,30.03,1,0,1,0.00
2013-11-10,70.9,52.2,44.4,53.8,47.1,43.8,98,85,54,30.05,30.03,0,0,0,0.01
2013-11-11,65.5,47.2,38.1,52.5,44.3,37.9,99,91,60,30.12,30.01,24,1,24,0.00
2013-11-12,68.9,51.2,45.1,61.4,49.9,-3.3,99,97,10,30.42,30.07,3,0,3,0.25
2013-11-13,52.3,49.0,47.1,52.1,48.7,46.9,99,99,98,30.46,30.28,2,0,2,0.00
2013-11-14,53.6,46.9,42.4,48.6,46.0,42.2,99,97,79,30.29,30.09,4,0,4,0.04
2013-11-15,51.4,44.1,39.0,46.3,43.2,-8.4,99,97,88,30.10,29.60,28,2,28,0.06
2013-11-16,52.7,46.4,-28.3,46.1,43.1,-28.2,99,89,73,29.87,29.57,10,2,10,0.07
2013-11-17,52.9,48.6,44.8,48.0,45.4,15.6,98,89,79,30.01,29.87,11,3,11,0.02
2013-11-18,54.1,49.2,47.5,53.6,45.7,15.0,98,88,34,29.99,29.74,14,4,14,0.39
2013-11-19,52.5,48.1,38.1,52.3,47.8,-2.9,99,99,35,30.01,29.72,102,2,102,0.67
2013-11-20,74.7,40.5,38.1,40.2,37.0,-12.0,99,89,53,30.25,30.01,27,0,27,0.01
2013-11-21,52.3,32.4,27.1,25.7,20.7,-9.2,83,66,10,30.52,30.34,2,0,2,13.61
2013-11-22,62.1,38.3,28.0,24.7,20.6,17.7,69,51,22,30.52,30.36,2,0,2,0.00
2013-11-23,65.7,40.2,-1.7,26.8,18.9,-35.6,64,44,10,30.35,30.14,24,1,24,0.09
2013-11-24,61.9,38.9,29.1,30.8,25.9,20.2,84,62,27,30.26,30.13,49,0,49,0.00
2013-11-25,61.5,37.7,28.0,36.5,30.1,26.0,95,77,34,30.32,30.26,2,0,2,0.00
2013-11-26,53.1,38.9,21.7,40.4,33.8,-12.0,95,83,61,30.26,30.04,12,0,12,0.00
2013-11-27,59.7,41.1,25.2,37.9,34.2,-15.5,91,78,43,30.05,29.94,3,0,3,0.00
2013-11-28,65.3,41.2,33.4,39.1,32.9,-14.4,90,74,34,30.19,30.00,2,0,2,0.00
2013-11-29,46.6,41.1,30.9,40.4,37.4,-18.2,98,88,10,30.35,30.19,0,0,0,0.00
2013-11-30,41.9,41.9,41.9,39.7,39.7,39.7,92,92,92,30.33,30.33,0,0,0,0.00
2013-12-1,41.9,41.9,41.9,39.7,39.7,39.7,92,92,92,30.33,30.33,0,0,0,0.00
2013-12-2,41.9,41.9,41.9,39.7,39.7,39.7,92,92,92,30.33,30.33,0,0,0,0.00
2013-12-3,41.9,41.7,0.0,39.7,39.7,39.7,92,92,92,30.33,29.92,0,0,0,0.00
2013-12-4,53.6,38.7,33.8,35.1,29.9,24.3,93,73,35,30.01,29.95,0,0,0,0.00
2013-12-5,46.8,35.1,30.6,30.5,28.5,26.1,86,77,47,29.98,29.83,0,0,0,0.00
2013-12-6,38.1,35.9,34.2,34.0,30.5,25.4,87,81,70,29.83,29.61,0,0,0,0.00
2013-12-7,37.4,35.0,29.8,25.8,20.7,19.0,72,57,47,29.98,29.73,0,0,0,0.00
2013-12-8,37.4,37.4,37.4,19.0,19.0,19.0,47,47,47,29.98,29.98,0,0,0,0.00
2013-12-9,40.5,35.7,25.5,31.5,29.0,22.3,89,76,61,30.62,30.54,0,0,0,0.00
2013-12-10,43.0,37.1,21.7,35.3,31.8,-10.5,93,82,10,30.56,30.42,97,0,97,0.01
2013-12-11,50.7,34.5,31.5,40.5,32.4,30.1,95,92,62,30.42,30.23,13,0,13,0.00
2013-12-12,47.5,39.4,30.4,46.4,37.6,28.9,98,93,84,30.25,30.14,0,0,0,0.19
2013-12-13,58.3,48.8,44.2,52.0,47.0,18.5,99,94,77,30.48,30.25,0,0,0,0.01
2013-12-14,54.3,45.9,43.0,49.5,44.8,20.1,99,96,35,30.50,30.40,2,0,2,0.00
2013-12-15,54.3,47.8,44.1,49.3,46.1,43.5,99,94,81,30.50,30.45,0,0,0,0.12
2013-12-16,48.6,46.4,43.9,48.3,46.2,43.6,99,99,99,30.49,30.28,0,0,0,0.01
2013-12-17,44.4,42.7,41.9,44.2,42.4,41.6,99,99,99,30.27,30.20,0,0,0,0.01
2013-12-18,46.6,43.1,38.8,46.3,42.8,38.6,99,99,99,30.22,30.08,24,0,24,0.15
2013-12-19,43.9,39.0,36.3,42.7,38.5,35.9,99,98,93,30.34,30.16,0,0,0,0.00
2013-12-20,48.4,41.7,37.4,47.9,41.2,37.1,99,98,91,30.26,29.96,0,0,0,0.07
2013-12-21,58.3,51.2,48.4,53.9,49.9,13.3,99,95,82,30.28,30.00,0,0,0,0.02
2013-12-22,58.3,51.7,47.5,54.8,50.8,47.2,99,97,86,30.39,30.28,0,0,0,0.02
2013-12-23,54.1,51.4,49.6,53.9,51.1,49.4,99,99,97,30.47,30.36,0,0,0,0.06
2013-12-25,49.6,49.6,49.6,49.4,49.4,49.4,99,99,99,30.44,30.42,0,0,0,0.06
2013-12-26,49.6,49.6,49.6,49.4,49.4,49.4,99,99,99,30.42,30.31,0,0,0,0.06